Location: Bacharowice
(49.9333°N, 19.5833°E)
Time: 00:07:20
(UTC+00:00)

SOZ - Pass Details

Date: 29 September 2021
Orbit: 306 x 16685 km, 52.0° (Epoch: 24 October)

Event Time Altitude Azimuth Distance (km) Brightness Sun altitude
Exits shadow 03:14:44 - 241° (WSW) 15,592 12.0 -14.2°
Reaches altitude 10° 03:18:01 10° 241° (WSW) 14,962 11.9 -13.7°
Maximum altitude 04:04:41 90° 163° (SSE) 2,419 8.5 -6.3°
Drops below altitude 10° 04:11:58 10° 73° (ENE) 3,032 10.7 -5.1°
Sets 04:13:29 0° 73° (ENE) 3,573 11.4 -4.9°
